Weather History for Trinidad, CO

Change the Weather History Date:

Saturday, February 8, 2014

  Actual Average Record
Temperature  
Mean Temperature 39 °F 34 °F  
Max Temperature 55 °F 49 °F 73 °F (1957)
Min Temperature 23 °F 19 °F -12 °F (2011)
Degree Days  
Heating Degree Days 26 31  
Month to date heating degree days 379 255  
Since 1 July heating degree days 3537 3537  
Cooling Degree Days 0 0  
Month to date cooling degree days 0 0  
Year to date cooling degree days 0 0  
Moisture  
Dew Point 19 °F    
Average Humidity 44    
Maximum Humidity 62    
Minimum Humidity 26    
Precipitation  
Precipitation 0.00 in 0.02 in 0.34 in (2001)
Month to date precipitation T 0.12  
Year to date precipitation 0.09 0.52  
Sea Level Pressure  
Sea Level Pressure 29.89 in    
Wind  
Wind Speed 13 mph (WSW)    
Max Wind Speed 23 mph    
Max Gust Speed 30 mph    
Visibility 10 miles    
Events Rain    
T = Trace of Precipitation, MM = Missing Value Source: NWS Daily Summary

Daily Weather History Graph

Daily Weather History Graph

Search for Another Location

Airport:

Trip Planner

Search our weather history database for the weather conditions in past years. The results will help you decide how hot, cold, wet, or windy it might be!

Date:

Astronomy

Feb. 08, 2014 Rise Set
Actual Time 6:53 AM MST 5:29 PM MST
Civil Twilight 6:26 AM MST 5:56 PM MST
Nautical Twilight 5:55 AM MST 6:27 PM MST
Astronomical Twilight 5:25 AM MST 6:58 PM MST
Moon 12:27 PM MST (2/8) 2:06 AM MST (2/8)
Length of Visible Light 11h 29m
Length of Day
10h 35m
Waxing Gibbous, 69% of the Moon is Illuminated
Feb 8
Waxing Gibbous
Feb 14
Full
Feb 22
Last Quarter
Mar 1
New
Mar 8
First Quarter

Hourly Weather History & Observations

Time (MST) Temp. Windchill Dew Point Humidity Pressure Visibility Wind Dir Wind Speed Gust Speed Precip Events Conditions
12:54 AM 28.0 °F 16.1 °F 14.0 °F 56% 29.90 in 10.0 mi WSW 16.1 mph - N/A   Clear
1:54 AM 25.0 °F 15.5 °F 14.0 °F 63% 29.89 in 10.0 mi WSW 9.2 mph - N/A   Clear
2:54 AM 25.0 °F 16.3 °F 12.9 °F 60% 29.89 in 10.0 mi West 8.1 mph - N/A   Clear
3:54 AM 24.1 °F - 12.9 °F 62% 29.90 in 10.0 mi Calm Calm - N/A   Clear
4:54 AM 28.9 °F 21.1 °F 12.0 °F 49% 29.88 in 10.0 mi SW 8.1 mph - N/A   Clear
5:54 AM 30.9 °F 21.2 °F 12.9 °F 47% 29.86 in 10.0 mi WSW 12.7 mph - N/A   Clear
6:54 AM 33.1 °F 22.2 °F 16.0 °F 50% 29.87 in 10.0 mi WSW 17.3 mph - N/A   Clear
7:54 AM 28.9 °F 21.1 °F 16.0 °F 58% 29.90 in 10.0 mi West 8.1 mph - N/A   Clear
8:29 AM 39.9 °F 31.4 °F 19.9 °F 45% 29.90 in 10.0 mi WSW 16.1 mph - N/A   Clear
8:54 AM 42.1 °F 34.5 °F 21.0 °F 43% 29.87 in 10.0 mi SW 15.0 mph - N/A   Clear
9:54 AM 46.9 °F - 19.0 °F 33% 29.89 in 10.0 mi WNW 6.9 mph - N/A   Clear
10:54 AM 48.9 °F - 21.0 °F 33% 29.90 in 10.0 mi West 8.1 mph - N/A   Clear
11:54 AM 51.1 °F - 21.9 °F 32% 29.86 in 10.0 mi West 12.7 mph - N/A   Clear
12:54 PM 54.0 °F - 19.0 °F 25% 29.84 in 10.0 mi WNW 16.1 mph 24.2 mph N/A   Clear
1:24 PM 52.0 °F - 25.0 °F 35% 29.88 in 10.0 mi WSW 18.4 mph - N/A   Clear
1:54 PM 54.0 °F - 24.1 °F 31% 29.85 in 10.0 mi WSW 18.4 mph - N/A   Clear
2:54 PM 55.0 °F - 23.0 °F 29% 29.86 in 10.0 mi West 13.8 mph - N/A   Clear
3:54 PM 53.1 °F - 24.1 °F 32% 29.89 in 10.0 mi West 19.6 mph 26.5 mph N/A   Clear
4:54 PM 50.0 °F - 24.1 °F 36% 29.89 in 10.0 mi West 13.8 mph - N/A   Clear
5:54 PM 45.0 °F 37.4 °F 23.0 °F 42% 29.94 in 10.0 mi WSW 18.4 mph - N/A   Clear
6:54 PM 44.1 °F 37.1 °F 21.9 °F 42% 29.93 in 10.0 mi WSW 15.0 mph - N/A   Clear
7:54 PM 43.0 °F 34.2 °F 21.9 °F 43% 29.95 in 10.0 mi West 20.7 mph - N/A   Clear
8:54 PM 41.0 °F 34.7 °F 21.9 °F 47% 29.90 in 10.0 mi WSW 10.4 mph - 0.00 in Rain Light Rain
9:54 PM 45.0 °F 37.1 °F 21.0 °F 39% 29.88 in 10.0 mi WSW 19.6 mph - 0.00 in   Clear
10:54 PM 46.9 °F - 19.9 °F 34% 29.86 in 10.0 mi WSW 17.3 mph 27.6 mph N/A   Clear
11:54 PM 46.0 °F 43.1 °F 18.0 °F 33% 29.86 in 10.0 mi Variable 5.8 mph - N/A   Clear